Regional Weather Roundup
Issued by NWS

Home | Current Version | Previous Version | Graphics & Text | Print | Product List | Glossary On
Versions: 1 2 3 4 5 6 7 8 9 10 11 12 13 14 15 16 17 18 19 20 21 22 23 24 25 26 27 28 29 30 31 32 33 34 35 36 37 38 39 40 41 42 43 44 45 46 47 48 49 50
000
ASUS45 KSLC 272210
RWRUT

UTAH REGIONAL WEATHER ROUNDUP
NATIONAL WEATHER SERVICE SALT LAKE CITY UT
400 PM MDT MON APR 27 2015

UTZ001>011-023>025-272300-

NORTHERN UTAH

CITY           SKY/WX    TMP DP  RH WIND       PRES   REMARKS
BRIGHAM CITY   SUNNY     63  32  31 W5        30.20F
HILL AFB       MOSUNNY   61  36  40 W8        30.20F
LOGAN          MOSUNNY   60  34  37 VRB5      30.20F
OGDEN          SUNNY     62  37  39 W8        30.19F
PROVO AIRPORT  MOSUNNY   59  37  44 W7        30.20F
SALT LAKE CITY MOSUNNY   59  37  44 W16       30.20F
VERNAL         MOSUNNY   61  34  36 NE18G28   30.17F
WENDOVER       SUNNY     63  19  19 E6        30.23F
HEBER CITY     SUNNY     61  34  36 W6        30.18F
WEST JORDAN    SUNNY     59  39  47 NW13      30.21F

$$

UTZ012>022-026-027-272300-

SOUTHERN/CENTRAL UTAH

CITY           SKY/WX    TMP DP  RH WIND       PRES   REMARKS
BLANDING       CLOUDY    63  33  32 N7        30.13F
BRYCE CANYON   PTSUNNY   56  31  38 W7G17     30.18F
CEDAR CITY     SUNNY     61  32  33 N9G20     30.14F
DELTA          MOSUNNY   60  32  34 NW8       30.19F
HANKSVILLE     SUNNY     70  32  24 N8        30.09S
MILFORD        SUNNY     62  30  29 N21G26    30.17F
MOAB/CYNLANDS  MOSUNNY   65  37  35 NE10G18   30.06F
PRICE          NOT AVBL
ST GEORGE      CLEAR     73  32  21 W5        30.03F
KANAB          PTSUNNY   70  32  24 E5        30.08F

$$

REGIONAL REPORTS     COLORADO/ARIZONA

CITY           SKY/WX    TMP DP  RH WIND       PRES   REMARKS
CRAIG, CO      PTSUNNY   55  38  52 N15       30.16F
GRAND JUNCTION MOSUNNY   63  42  46 W12G18    30.07F
RIFLE          MOSUNNY   64  38  38 NW20G26   30.08F
MONTROSE       MOSUNNY   62  36  37 NW12      30.09F
CORTEZ         PTSUNNY   65  31  28 W13G20    30.03F
PAGE, AZ       NOT AVBL
GRAND CANYON   SUNNY     59  29  31 VRB5      30.13F
KINGMAN        SUNNY     75  28  17 N9G23     30.01F
FLAGSTAFF      MOSUNNY   58  32  37 E14G23    30.12F

$$

REGIONAL REPORTS    NEVADA/IDAHO/WYOMING

CITY           SKY/WX    TMP DP  RH WIND       PRES   REMARKS
LAS VEGAS, NV  SUNNY     79  21  11 CALM      29.97F
ELY            SUNNY     60  18  19 N15G21    30.21F
ELKO           SUNNY     63  17  17 NE14      30.22F
POCATELLO, ID  MOSUNNY   60  24  25 NW12G23   30.26F
BURLEY         SUNNY     60  25  26 CALM      30.24F
EVANSTON, WY   CLOUDY    52  31  44 VRB7      30.26F
ROCK SPRINGS   MOSUNNY   50  36  58 NE15      30.26F
KEMMERER       PTSUNNY   50  32  50 CALM      30.28S

$$


USA.gov is the U.S. government's official web portal to all federal, state and local government web resources and services.